Date String (YYYY-MM-DD hh:mm:ss) UTC,Instrument flags,Ambient pressure (hPa),Sample flow (lpm),Bypass flow (lpm),Sample temperature (°C),Ambient temperature (°C),ASC tube jacket temperature (°C),LED temperature (°C),Box temperature (°C),Sample RH (%),Span deviation,Mass concentration (μg/m³),Mass concentration (μg/m³),Mass concentration (μg/m³)
DateTimeUTC,F1_M11,P_M11,Q1_M11,Q2_M11,T1_M11,T2_M11,T3_M11,T4_M11,T5_M11,U1_M11,ZSPAN_M11,X0_M11,X2_M11,X1_M11
2022-11-14 05:00:00,,0826.0,5.00,0.00,22.8,21.4,00.0,31.5,24.7,07.6,0000.0,0010.15,0004.36,0003.66
2022-11-14 05:01:00,,0826.1,4.99,0.00,22.8,21.3,00.0,31.5,24.7,07.6,0000.0,0010.79,0004.36,0003.67
2022-11-14 05:02:00,,0826.2,5.00,0.00,22.8,21.3,00.0,31.5,24.7,07.5,0000.0,0010.91,0004.34,0003.66
2022-11-14 05:03:00,,0826.2,5.00,0.00,22.8,21.3,00.0,31.5,24.7,07.5,0000.0,0011.03,0004.36,0003.67
2022-11-14 05:04:00,,0826.2,4.99,0.00,22.8,21.3,00.0,31.5,24.7,07.5,0000.0,0011.17,0004.43,0003.68
2022-11-14 05:05:00,,0826.1,5.02,0.00,22.8,21.3,00.0,31.5,24.7,07.5,0000.0,0010.88,0004.43,0003.69
2022-11-14 05:06:00,,0826.1,5.00,0.00,22.8,21.3,00.0,31.5,24.7,07.5,0000.0,0010.72,0004.42,0003.70
2022-11-14 05:07:00,,0826.1,4.98,0.00,22.8,21.3,00.0,31.5,24.6,07.6,0000.0,0010.62,0004.40,0003.70
2022-11-14 05:08:00,,0826.2,5.00,0.00,22.8,21.3,00.0,31.5,24.7,07.6,0000.0,0010.55,0004.43,0003.70
2022-11-14 05:09:00,,0826.2,5.01,0.00,22.8,21.9,00.0,31.5,24.8,07.5,0000.0,0010.59,0004.42,0003.70
2022-11-14 05:10:00,,0826.2,4.99,0.00,22.9,22.5,00.0,31.5,24.9,07.5,0000.0,0010.92,0004.41,0003.70
2022-11-14 05:11:00,,0826.1,5.00,0.00,22.9,22.3,00.0,31.5,24.9,07.5,0000.0,0009.82,0004.39,0003.70
2022-11-14 05:12:00,,0826.2,5.01,0.00,22.9,22.1,00.0,31.6,24.9,07.5,0000.0,0009.16,0004.38,0003.71
2022-11-14 05:13:00,,0826.2,4.99,0.00,22.9,22.0,00.0,31.6,24.9,07.5,0000.0,0009.59,0004.40,0003.73
2022-11-14 05:14:00,,0826.2,5.01,0.00,22.9,21.9,00.0,31.6,24.8,07.5,0000.0,0009.79,0004.41,0003.75
2022-11-14 05:15:00,,0826.3,5.00,0.00,22.9,21.8,00.0,31.6,24.8,07.5,0000.0,0009.96,0004.35,0003.76
2022-11-14 05:16:00,,0826.2,4.99,0.00,22.9,21.8,00.0,31.7,24.8,07.5,0000.0,0010.49,0004.35,0003.77
2022-11-14 05:17:00,,0826.3,5.01,0.00,22.9,21.7,00.0,31.7,24.8,07.5,0000.0,0011.24,0004.35,0003.79
2022-11-14 05:18:00,,0826.4,4.99,0.00,22.9,21.7,00.0,31.7,24.8,07.5,0000.0,0011.51,0004.36,0003.80
2022-11-14 05:19:00,,0826.5,5.00,0.00,22.9,21.6,00.0,31.7,24.8,07.5,0000.0,0011.42,0004.35,0003.81
2022-11-14 05:20:00,,0826.5,5.01,0.00,22.9,21.6,00.0,31.7,24.8,07.5,0000.0,0011.68,0004.40,0003.84
2022-11-14 05:21:00,,0826.5,5.00,0.00,22.9,21.5,00.0,31.7,24.8,07.6,0000.0,0011.94,0004.44,0003.85
2022-11-14 05:22:00,,0826.5,4.99,0.00,22.9,21.5,00.0,31.7,24.8,07.6,0000.0,0013.39,0004.46,0003.86
2022-11-14 05:23:00,,0826.5,5.01,0.00,22.9,21.5,00.0,31.6,24.8,07.6,0000.0,0013.47,0004.50,0003.88
2022-11-14 05:24:00,,0826.6,5.01,0.00,22.9,21.5,00.0,31.6,24.7,07.6,0000.0,0012.67,0004.51,0003.88
2022-11-14 05:25:00,,0826.6,4.99,0.00,22.9,21.4,00.0,31.6,24.7,07.6,0000.0,0012.47,0004.50,0003.88
2022-11-14 05:26:00,,0826.6,4.99,0.00,22.8,21.4,00.0,31.6,24.7,07.6,0000.0,0012.91,0004.51,0003.87
2022-11-14 05:27:00,,0826.6,5.00,0.00,22.8,21.4,00.0,31.6,24.7,07.6,0000.0,0012.37,0004.52,0003.88
2022-11-14 05:28:00,,0826.6,5.00,0.00,22.8,21.4,00.0,31.6,24.7,07.6,0000.0,0011.97,0004.50,0003.87
2022-11-14 05:29:00,,0826.6,5.01,0.00,22.8,21.4,00.0,31.6,24.7,07.6,0000.0,0011.26,0004.48,0003.86
2022-11-14 05:30:00,,0826.6,5.00,0.00,22.8,21.4,00.0,31.6,24.7,07.6,0000.0,0011.50,0004.49,0003.87
2022-11-14 05:31:00,,0826.5,4.99,0.00,22.8,21.4,00.0,31.6,24.7,07.6,0000.0,0011.84,0004.47,0003.87
2022-11-14 05:32:00,,0826.5,5.01,0.00,22.8,21.4,00.0,31.6,24.7,07.6,0000.0,0011.52,0004.45,0003.87
2022-11-14 05:33:00,,0826.5,5.01,0.00,22.8,21.4,00.0,31.6,24.7,07.6,0000.0,0010.39,0004.46,0003.88
2022-11-14 05:34:00,,0826.5,4.99,0.00,22.8,21.3,00.0,31.6,24.7,07.6,0000.0,0010.08,0004.46,0003.88
2022-11-14 05:35:00,,0826.5,5.00,0.00,22.8,21.3,00.0,31.5,24.7,07.6,0000.0,0010.09,0004.45,0003.87
2022-11-14 05:36:00,,0826.5,5.01,0.00,22.8,21.3,00.0,31.6,24.7,07.6,0000.0,0010.11,0004.44,0003.87
2022-11-14 05:37:00,,0826.5,5.00,0.00,22.8,21.3,00.0,31.6,24.7,07.6,0000.0,0009.49,0004.47,0003.88
2022-11-14 05:38:00,,0826.5,5.00,0.00,22.8,21.3,00.0,31.6,24.7,07.6,0000.0,0009.56,0004.49,0003.88
2022-11-14 05:39:00,,0826.5,5.00,0.00,22.8,21.3,00.0,31.5,24.7,07.6,0000.0,0009.77,0004.54,0003.90
2022-11-14 05:40:00,,0826.5,4.98,0.00,22.8,21.3,00.0,31.5,24.7,07.6,0000.0,0009.74,0004.55,0003.90
2022-11-14 05:41:00,,0826.5,5.01,0.00,22.8,21.3,00.0,31.5,24.6,07.6,0000.0,0009.67,0004.54,0003.90
2022-11-14 05:42:00,,0826.6,5.00,0.00,22.8,21.3,00.0,31.5,24.7,07.6,0000.0,0009.71,0004.58,0003.91
2022-11-14 05:43:00,,0826.7,5.00,0.00,22.8,21.3,00.0,31.5,24.6,07.6,0000.0,0010.10,0004.56,0003.92
2022-11-14 05:44:00,,0826.7,5.01,0.00,22.8,21.3,00.0,31.5,24.6,07.7,0000.0,0010.30,0004.57,0003.92
2022-11-14 05:45:00,,0826.7,5.01,0.00,22.7,21.3,00.0,31.5,24.6,07.7,0000.0,0010.40,0004.61,0003.93
2022-11-14 05:46:00,,0826.7,5.01,0.00,22.7,21.3,00.0,31.5,24.6,07.7,0000.0,0010.51,0004.64,0003.95
2022-11-14 05:47:00,,0826.7,4.98,0.00,22.7,21.3,00.0,31.5,24.6,07.7,0000.0,0010.69,0004.66,0003.96
2022-11-14 05:48:00,,0826.7,5.02,0.00,22.7,21.2,00.0,31.5,24.6,07.7,0000.0,0011.10,0004.68,0003.97
2022-11-14 05:49:00,,0826.7,5.00,0.00,22.7,21.2,00.0,31.5,24.6,07.7,0000.0,0012.37,0004.71,0003.99
2022-11-14 05:50:00,,0826.7,4.99,0.00,22.7,21.2,00.0,31.5,24.6,07.7,0000.0,0013.85,0004.72,0003.98
2022-11-14 05:51:00,,0826.8,5.01,0.00,22.7,21.2,00.0,31.5,24.6,07.7,0000.0,0014.23,0004.70,0003.98
2022-11-14 05:52:00,,0826.7,5.00,0.00,22.7,21.2,00.0,31.5,24.6,07.7,0000.0,0014.83,0004.70,0003.98
2022-11-14 05:53:00,,0826.8,4.98,0.00,22.7,21.2,00.0,31.5,24.6,07.7,0000.0,0015.69,0004.72,0003.99
2022-11-14 05:54:00,,0826.8,5.00,0.00,22.7,21.2,00.0,31.5,24.6,07.7,0000.0,0014.94,0004.73,0003.98
2022-11-14 05:55:00,,0826.7,5.00,0.00,22.7,21.2,00.0,31.5,24.6,07.7,0000.0,0014.51,0004.71,0003.98
2022-11-14 05:56:00,,0826.7,5.01,0.00,22.7,21.2,00.0,31.5,24.6,07.7,0000.0,0014.73,0004.69,0003.97
2022-11-14 05:57:00,,0826.7,4.99,0.00,22.7,21.2,00.0,31.5,24.6,07.7,0000.0,0014.95,0004.67,0003.96
2022-11-14 05:58:00,,0826.7,5.00,0.00,22.7,21.2,00.0,31.5,24.6,07.8,0000.0,0015.76,0004.68,0003.95
2022-11-14 05:59:00,,0826.8,5.01,0.00,22.7,21.2,00.0,31.4,24.6,08.2,0000.0,0015.37,0004.65,0003.95
